Flag for Poland Weather past 2 weeks in Olsztyn, Poland

Now
56 °F

Cool.


Feels Like: 56 °F
Forecast: 56 / 79 °F
Wind: 2 mph from West

Location: Ketrzyn

Current Time: Jul 7, 2015 at 1:09:49 AM

Latest Report: Jul 7, 2015 at 12:00 AM


Visibility: 22 mi

Pressure: 30.03 "Hg

Humidity: 83%

Dew point: 51 °F

Location of OlsztynLocation

Historic Weather in Olsztyn — Graph

°F

Olsztyn temperature yesterday

Maximum temperature yesterday: 81 °F (at 9:00 AM)
Minimum temperature yesterday: 60 °F (at 10:00 PM)
Average temperature yesterday: 71 °F

Past Weeks' High & Low Weather Summary

 TemperatureHumidityPressure
High90 °F (Jul 5, 4:00 PM)98% (Jul 1, 6:00 AM)30.45 "Hg (Jul 1, 6:00 AM)
Low42 °F (Jun 27, 4:00 AM)31% (Jul 4, 4:00 PM)29.67 "Hg (Jun 23, 4:00 AM)
Average64 °F70%30.08 "Hg
* Reported Jun 21 10:00 PM — Jul 6 10:00 PM, Olsztyn, Weather by CustomWeather, © 2015

Note: Actual official high and low records may vary slightly from our data, if they occured in-between our weather recording intervals... More about our weather records

Advertising

Olsztyn weather history for previous 24 hours

 ConditionsComfort  
Time TempWeatherWind HumidityBarometerVisibility
10:00 PM
Mon, Jul 6
60 °FCool.3 mph74%30.02 "Hg22 mi
9:00 PM63 °FMild.3 mph70%30.01 "Hg19 mi
8:00 PM67 °FMild.5 mph66%29.99 "Hg22 mi
7:00 PM68 °FMild.6 mph71%29.98 "Hg19 mi
6:00 PM68 °FMild.6 mph75%29.98 "Hg25 mi
5:00 PM68 °FMild.7 mph85%29.96 "Hg17 mi
4:00 PM66 °FLight mixture of precip. Cloudy.7 mph88%29.95 "Hg1 mi
3:00 PM78 °FWarm.8 mph67%29.91 "Hg19 mi
2:00 PM74 °FMild.3 mph77%29.92 "Hg16 mi
1:00 PM73 °FMild.3 mph86%29.92 "Hg9 mi
12:00 PM72 °FRain. Cloudy.2 mph87%29.92 "Hg4 mi
11:00 AM74 °FMild.8 mph71%29.92 "Hg12 mi
10:00 AM80 °FWarm.6 mph54%29.88 "Hg17 mi
9:00 AM81 °FWarm.2 mph48%29.87 "Hg14 mi
8:00 AM78 °FWarm.3 mph61%29.88 "Hg14 mi
7:00 AM74 °FMild.2 mph72%29.89 "Hg16 mi
6:00 AM70 °FMild.3 mph77%29.91 "Hg9 mi
4:00 AM64 °FMild.2 mph86%29.93 "Hg9 mi
3:00 AM67 °FMild.2 mph82%29.93 "Hg16 mi
2:00 AM68 °FMild.1 mph82%29.94 "Hg15 mi
1:00 AM68 °FMild.1 mph80%29.96 "Hg14 mi
Weather by CustomWeather, © 2015

See weather overviewHow to use our weather pages